Flag for Syria Weather past 2 weeks in Damascus, Syria

Now
88 °F

Sunny.


Feels Like: 85 °F
Forecast: 57 / 88 °F
Wind: No wind

Location: Damascus Int. Airport

Current Time: Aug 29, 2015 at 1:15:34 PM

Latest Report: Aug 29, 2015 at 12:00 PM


Visibility: 10 mi

Pressure: 29.95 "Hg (27.72 "Hg at 689m altitude)

Humidity: 25%

Dew point: 48 °F

Location of DamascusLocation

Historic Weather in Damascus — Graph

°F

Damascus temperature yesterday

Maximum temperature yesterday: 95 °F (at 4:00 PM)
Minimum temperature yesterday: 61 °F (at 6:00 AM)
Average temperature yesterday: 79 °F

Past Weeks' High & Low Weather Summary

 TemperatureHumidityPressure
High109 °F (Aug 18, 5:00 PM)100% (Aug 15, 1:00 AM)30.07 "Hg (Aug 15, 1:00 AM)
Low57 °F (Aug 15, 1:00 AM)9% (Aug 18, 5:00 PM)29.71 "Hg (Aug 23, 3:00 PM)
Average83 °F44%29.85 "Hg
* Reported Aug 14 12:00 Noon — Aug 29 12:00 Noon, Damascus, Weather by CustomWeather, © 2015

Note: Actual official high and low records may vary slightly from our data, if they occured in-between our weather recording intervals... More about our weather records

Advertising

Damascus weather history for previous 24 hours

 ConditionsComfort  
Time TempWeatherWind HumidityBarometerVisibility
12:00 PM
Sat, Aug 29
88 °FSunny.No wind25%29.95 "Hg10 mi
10:00 AM81 °FSunny.No wind39%29.95 "Hg10 mi
9:00 AM73 °FSunny.No wind57%29.95 "Hg10 mi
8:00 AM70 °FSunny.No wind73%29.95 "Hg10 mi
7:00 AM64 °FClear.No wind68%29.95 "Hg10 mi
6:00 AM63 °FClear.No wind68%29.95 "Hg10 mi
5:00 AM63 °FClear.No wind68%29.92 "Hg10 mi
4:00 AM64 °FClear.No wind64%29.92 "Hg10 mi
3:00 AM68 °FClear.No wind64%29.92 "Hg10 mi
2:00 AM70 °FClear.2 mph57%29.92 "Hg10 mi
1:00 AM72 °FClear.5 mph53%29.92 "Hg10 mi
12:00 AM73 °FClear.5 mph50%29.92 "Hg10 mi
11:00 PM
Fri, Aug 28
75 °FClear.7 mph47%29.95 "Hg10 mi
10:00 PM77 °FClear.7 mph47%29.92 "Hg10 mi
9:00 PM81 °FClear.5 mph42%29.92 "Hg10 mi
8:00 PM86 °FSunny.5 mph31%29.89 "Hg10 mi
7:00 PM90 °FSunny.2 mph24%29.89 "Hg10 mi
6:00 PM93 °FPassing clouds.9 mph21%29.86 "HgN/A
5:00 PM95 °FPassing clouds.5 mph14%29.86 "HgN/A
4:00 PM95 °FPassing clouds.7 mph14%29.89 "HgN/A
3:00 PM93 °FPassing clouds.7 mph17%29.89 "HgN/A
2:00 PM93 °FPassing clouds.5 mph16%29.92 "HgN/A
1:00 PM90 °FSunny.7 mph22%29.95 "Hg10 mi
Weather by CustomWeather, © 2015

See weather overviewHow to use our weather pages